Regional Weather Roundup
Issued by NWS State College, PA

Home | Current Version | Previous Version | Text Only | Print | Product List | Glossary On
Versions: 1 2 3 4 5 6 7 8 9 10 11 12 13 14 15 16 17 18 19 20 21 22 23 24 25 26 27 28 29 30 31 32 33 34 35 36 37 38 39 40 41 42 43 44 45 46 47 48 49 50
000
ASUS41 KCTP 301810
RWRCTP

REGIONAL WEATHER ROUNDUP
NATIONAL WEATHER SERVICE STATE COLLEGE PA
200 PM EDT WED JUL 30 2014

Note: "fair" indicates few or no clouds below 12,000 feet with no
significant weather and/or obstructions to visibility.

* = STATION THAT DOES NOT REPORT PRECIPITATION /E.G. RAIN...SNOW...ETC/
    THUNDER OR FOG.

PAZ002>004-007>009-013>016-020>023-029>032-301900-
WESTERN PENNSYLVANIA

CITY           SKY/WX    TMP DP  RH WIND       PRES   REMARKS
ERIE           FAIR      72  58  61 W12G22    29.99S
MEADVILLE      LGT RAIN  63  57  81 SW3       30.03S
FRANKLIN*      CLOUDY    66  54  63 W10       30.04S THUNDER
NEW CASTLE     FAIR      73  58  59 SW10      30.03F
BEAVER COUNTY  HVY RAIN  68  57  68 SW12      30.04S
BUTLER*        PTSUNNY   70  57  64 S12       30.05F
PITTSBURGH INT PTSUNNY   71  56  58 SW10      30.03F
PITTSBURGH     PTSUNNY   72  55  55 SW12      30.03F
INDIANA*       PTSUNNY   70  59  68 SW12      30.08F
LATROBE        PTSUNNY   70  59  68 W14       30.07F
WASHINGTON CO* CLOUDY    72  57  60 SW6       30.06F
$$

PAZ004>006-010>012-017>019-024>028-033>037-041-042-045-046-049>053-301900-
CENTRAL PENNSYLVANIA

CITY           SKY/WX    TMP DP  RH WIND       PRES   REMARKS
BRADFORD       FAIR      64  54  69 VRB7      30.03F
DUBOIS         FAIR      69  57  65 W10       30.03F
CLEARFIELD     PTSUNNY   70  56  61 SW7       30.04F
JOHNSTOWN      FAIR      66  54  65 SW13      30.08F
ALTOONA        PTSUNNY   71  55  56 S8        30.07F
STATE COLLEGE  PTSUNNY   70  55  60 SW12      30.03F
WILLIAMSPORT   PTSUNNY   74  52  46 SW6       30.01F
SELINSGROVE    PTSUNNY   73  57  57 VRB7      30.04F
FT INDIANTOWN  PTSUNNY   74  52  47 SW12      30.05F
CAPITAL CITY   FAIR      73  53  49 VRB6      30.05S
HARRISBURG     PTSUNNY   76  55  48 SE6       30.04F
YORK           FAIR      74  53  48 VRB5      30.06S
$$

PAZ038>040-043-044-047-048-054-055-060>062-067>071-301900-
EASTERN PENNSYLVANIA

CITY           SKY/WX    TMP DP  RH WIND       PRES   REMARKS
SCRANTON       PTSUNNY   74  49  41 NW7       30.03F
MOUNT POCONO   PTSUNNY   71  49  45 MISG      30.06F
ALLENTOWN      FAIR      76  51  41 VRB5      30.03F
QUAKERTOWN*    MOCLDY    75  55  50 S3        30.05S
READING        FAIR      76  53  44 NW8       30.04S
LANCASTER      FAIR      73  52  47 W6        30.05F
COATESVILLE    FAIR      73  55  53 W6        30.07S
POTTSTOWN      FAIR      73  53  49 VRB3      30.05F
BLUE BELL      FAIR      77  54  44 W3        30.03F
DOYLESTOWN     FAIR      75  51  43 VRB6      30.03F
WILLOW GROVE   NOT AVBL
NORTH PHILA    FAIR      78  48  34 W6        30.04F
PHILADELPHIA   FAIR      78  51  38 S9        30.03F
$$



USA.gov is the U.S. government's official web portal to all federal, state and local government web resources and services.